Location: Burzi?i
(45.0869°N, 16.0577°E)
Time: 11:56:11
(UTC+00:00)

Cosmos 1346 Rocket - Pass Details

Date: 29 October 2020
Orbit: 535 x 543 km, 81.2° (Epoch: 27 November)

Event Time Altitude Azimuth Distance (km) Brightness Sun altitude
Rises 17:29:29 0° 347° (NNW) 2,715 6.5 -18.5°
Reaches altitude 10° 17:31:39 10° 344° (NNW) 1,819 5.6 -18.9°
Maximum altitude 17:35:38 68° 262° (W) 588 3.1 -19.6°
Drops below altitude 10° 17:39:35 10° 179° (S) 1,804 5.4 -20.3°
Sets 17:41:44 0° 177° (S) 2,691 6.3 -20.7°
